This is the latest recevied weather packets stored in our database for station/object GCEMA. If no packets are shown the sender has not sent any weather packets the latest 1 day(s).
| Time | Temp. | Humidity | Pressure | Rain* | Wind** | Luminosity | Snow |
|---|---|---|---|---|---|---|---|
| 1778079720 | 13.33° C | - | 1011.7 hPa | 0 mm | 0 m/s | - | - |
| 1778079361 | 15° C | - | 1011.6 hPa | 0 mm | 0 m/s | - | - |
| 1778079004 | 15° C | - | 1011.8 hPa | 0 mm | 0 m/s | - | - |
| 1778077739 | 12.22° C | - | 1011.7 hPa | 0 mm | 0 m/s | - | - |
| 1778077379 | 13.33° C | - | 1011.9 hPa | 0 mm | 0 m/s | - | - |
| 1778076659 | 12.22° C | - | 1011.5 hPa | 0 mm | 0 m/s | - | - |
| 1778076116 | 13.33° C | - | 1011.1 hPa | 0 mm | 0 m/s | - | - |
| 1778075757 | 13.89° C | - | 1011 hPa | 0 mm | 0 m/s | - | - |
| 1778075398 | 13.33° C | - | 1011 hPa | 0 mm | 0 m/s | - | - |
| 1778075216 | 12.22° C | - | 1011.2 hPa | 0 mm | 0 m/s | - | - |
| 1778075036 | 12.22° C | - | 1011.2 hPa | 0 mm | 0 m/s | - | - |
| 1778074677 | 12.78° C | - | 1011.2 hPa | 0 mm | 0 m/s | - | - |
| 1778074495 | 12.22° C | - | 1011.1 hPa | 0 mm | 0 m/s | - | - |
| 1778074133 | 11.67° C | - | 1010.9 hPa | 0 mm | 0 m/s | - | - |
| 1778073233 | 12.22° C | - | 1010.5 hPa | 0 mm | 0 m/s | - | - |
| 1778072874 | 13.33° C | - | 1010 hPa | 0 mm | 0 m/s | - | - |
| 1778071612 | 11.67° C | - | 1010.6 hPa | 0 mm | 0 m/s | - | - |
| 1778070896 | 12.22° C | - | 1010.5 hPa | 0 mm | 0 m/s | - | - |
| 1778070712 | 12.78° C | - | 1010.5 hPa | 0 mm | 0 m/s | - | - |
| 1778070353 | 12.78° C | - | 1010.5 hPa | 0 mm | 0 m/s | - | - |
| 1778069632 | 12.22° C | - | 1010.5 hPa | 0 mm | 0 m/s | - | - |
| 1778069274 | 11.67° C | - | 1010.6 hPa | 0 mm | 0 m/s | - | - |
| 1778068912 | 12.22° C | - | 1010.5 hPa | 0 mm | 0 m/s | - | - |
| 1778068552 | 11.67° C | - | 1010.3 hPa | 0 mm | 0 m/s | - | - |
| 1778068011 | 11.67° C | - | 1010.3 hPa | 0 mm | 0 m/s | - | - |
* Rain latest hour (hover to see other rain measurements)
** Current wind speed in m/s (hover to see current wind gust speed)